• In Czech Republic
  • List of Countries
  • For 7 days
  • Water Temperature
  • Satellite Maps
  • Weather Map
  • Weather Widgets
  • user-avatar
    Login

    Hourly Weather Pokrovskiy

    Today, 22 June, Friday

    Time Temperature Precipitation Wind Pressure Humidity
    00:00 +17°C° 0 mm 2 mps 747 mmHg 87%
    01:00 +16°C° 0 mm 2 mps 747 mmHg 87%
    02:00 +16°C° 0 mm 2 mps 747 mmHg 88%
    03:00 +16°C° 0 mm 1 mps 747 mmHg 88%
    04:00 +18°C° 0 mm 1 mps 747 mmHg 87%
    05:00 +18°C° 0 mm 1 mps 747 mmHg 85%
    06:00 +19°C° 0 mm 1 mps 747 mmHg 84%
    07:00 +20°C° 0 mm 2 mps 747 mmHg 79%
    08:00 +22°C° 0 mm 3 mps 747 mmHg 75%
    09:00 +25°C° 0 mm 3 mps 747 mmHg 69%
    10:00 +25°C° 0 mm 4 mps 747 mmHg 66%
    11:00 +26°C° 0 mm 4 mps 747 mmHg 63%
    12:00 +27°C° 0 mm 4 mps 747 mmHg 59%
    13:00 +28°C° 0 mm 4 mps 746 mmHg 60%
    14:00 +28°C° 0 mm 4 mps 746 mmHg 60%
    15:00 +28°C° 0 mm 5 mps 746 mmHg 60%
    16:00 +28°C° 0 mm 4 mps 746 mmHg 64%
    17:00 +28°C° 0 mm 4 mps 746 mmHg 68%
    18:00 +28°C° 0 mm 3 mps 745 mmHg 72%
    19:00 +26°C° 0 mm 3 mps 745 mmHg 76%
    20:00 +25°C° 0 mm 3 mps 745 mmHg 81%
    21:00 +22°C° 0 mm 3 mps 745 mmHg 86%
    22:00 +21°C° 0 mm 3 mps 746 mmHg 87%
    23:00 +21°C° 0 mm 3 mps 746 mmHg 89%

    Tomorrow, 23 June, Saturday

    Time Temperature Precipitation Wind Pressure Humidity
    00:00 +20°C° 0 mm 3 mps 746 mmHg 91%
    01:00 +19°C° 0 mm 3 mps 746 mmHg 91%
    02:00 +19°C° 0 mm 3 mps 746 mmHg 91%
    03:00 +19°C° 0 mm 3 mps 746 mmHg 91%
    04:00 +19°C° 0 mm 3 mps 746 mmHg 89%
    05:00 +19°C° 0 mm 3 mps 746 mmHg 87%
    06:00 +20°C° 0 mm 3 mps 746 mmHg 85%
    07:00 +21°C° 0 mm 3 mps 746 mmHg 81%
    08:00 +23°C° 0 mm 4 mps 746 mmHg 76%
    09:00 +25°C° 0 mm 4 mps 746 mmHg 71%
    10:00 +27°C° 0 mm 4 mps 746 mmHg 67%
    11:00 +28°C° 0 mm 5 mps 746 mmHg 63%
    12:00 +29°C° 0 mm 5 mps 746 mmHg 58%
    13:00 +29°C° 0 mm 5 mps 745 mmHg 57%
    14:00 +29°C° 0 mm 5 mps 745 mmHg 56%
    15:00 +30°C° 0 mm 5 mps 745 mmHg 56%
    16:00 +29°C° 0 mm 5 mps 745 mmHg 60%
    17:00 +29°C° 0 mm 4 mps 745 mmHg 65%
    18:00 +29°C° 0 mm 4 mps 745 mmHg 70%
    19:00 +27°C° 0 mm 4 mps 744 mmHg 73%
    20:00 +25°C° 0 mm 4 mps 744 mmHg 77%
    21:00 +23°C° 0 mm 4 mps 744 mmHg 80%
    22:00 +22°C° 0 mm 4 mps 744 mmHg 79%
    23:00 +22°C° 0 mm 5 mps 744 mmHg 79%

    Day after tomorrow, 24 June, Sunday

    Time Temperature Precipitation Wind Pressure Humidity
    00:00 +21°C° 0 mm 5 mps 744 mmHg 79%
    01:00 +21°C° 0 mm 5 mps 744 mmHg 76%
    02:00 +21°C° 0 mm 5 mps 744 mmHg 74%
    03:00 +21°C° 0 mm 5 mps 743 mmHg 71%
    04:00 +21°C° 0 mm 5 mps 743 mmHg 70%
    05:00 +20°C° 0 mm 5 mps 743 mmHg 70%
    06:00 +20°C° 0 mm 5 mps 743 mmHg 69%
    07:00 +21°C° 0 mm 5 mps 743 mmHg 69%
    08:00 +22°C° 0 mm 5 mps 743 mmHg 69%
    09:00 +23°C° 0 mm 5 mps 743 mmHg 69%
    10:00 +23°C° 0.1 mm 5 mps 744 mmHg 70%
    11:00 +23°C° 0.1 mm 5 mps 744 mmHg 71%
    12:00 +23°C° 0.1 mm 5 mps 745 mmHg 72%
    13:00 +22°C° 0.8 mm 5 mps 745 mmHg 78%
    14:00 +20°C° 0.8 mm 4 mps 745 mmHg 84%
    15:00 +19°C° 0.8 mm 3 mps 746 mmHg 89%
    16:00 +18°C° 0.3 mm 3 mps 746 mmHg 90%
    17:00 +17°C° 0.3 mm 3 mps 746 mmHg 90%
    18:00 +17°C° 0.3 mm 3 mps 746 mmHg 90%
    19:00 +16°C° 0 mm 3 mps 747 mmHg 91%
    20:00 +15°C° 0 mm 2 mps 747 mmHg 92%
    21:00 +15°C° 0 mm 2 mps 747 mmHg 93%
    22:00 +14°C° 0 mm 2 mps 748 mmHg 93%
    23:00 +13°C° 0 mm 2 mps 748 mmHg 93%

    25 June, Monday

    Time Temperature Precipitation Wind Pressure Humidity
    00:00 +13°C° 0 mm 2 mps 748 mmHg 93%
    01:00 +12°C° 0 mm 2 mps 749 mmHg 93%
    02:00 +12°C° 0 mm 2 mps 749 mmHg 93%
    03:00 +12°C° 0 mm 2 mps 749 mmHg 93%
    04:00 +12°C° 0 mm 2 mps 750 mmHg 91%
    05:00 +13°C° 0 mm 2 mps 750 mmHg 90%
    06:00 +14°C° 0 mm 2 mps 750 mmHg 88%
    07:00 +15°C° 0 mm 2 mps 750 mmHg 82%
    08:00 +17°C° 0 mm 2 mps 750 mmHg 76%
    09:00 +18°C° 0 mm 2 mps 750 mmHg 69%
    10:00 +19°C° 0 mm 2 mps 750 mmHg 66%
    11:00 +20°C° 0 mm 2 mps 750 mmHg 63%
    12:00 +21°C° 0 mm 2 mps 750 mmHg 60%
    13:00 +21°C° 0 mm 2 mps 750 mmHg 59%
    14:00 +21°C° 0 mm 2 mps 750 mmHg 59%
    15:00 +23°C° 0 mm 2 mps 750 mmHg 58%
    16:00 +23°C° 0 mm 2 mps 750 mmHg 59%
    17:00 +23°C° 0 mm 2 mps 750 mmHg 60%
    18:00 +23°C° 0 mm 1 mps 750 mmHg 60%
    19:00 +21°C° 0 mm 1 mps 750 mmHg 66%
    20:00 +20°C° 0 mm 1 mps 750 mmHg 72%
    21:00 +18°C° 0 mm 1 mps 751 mmHg 78%
    22:00 +16°C° 0 mm 1 mps 751 mmHg 81%
    23:00 +16°C° 0 mm 1 mps 751 mmHg 83%

    26 June, Tuesday

    Time Temperature Precipitation Wind Pressure Humidity
    00:00 +15°C° 0 mm 1 mps 751 mmHg 86%
    01:00 +15°C° 0 mm 1 mps 751 mmHg 87%
    02:00 +14°C° 0 mm 2 mps 751 mmHg 89%
    03:00 +14°C° 0 mm 2 mps 751 mmHg 90%
    04:00 +14°C° 0 mm 1 mps 751 mmHg 88%
    05:00 +15°C° 0 mm 1 mps 751 mmHg 87%
    06:00 +16°C° 0 mm 1 mps 751 mmHg 85%
    07:00 +18°C° 0 mm 1 mps 751 mmHg 79%
    08:00 +20°C° 0 mm 1 mps 751 mmHg 74%
    09:00 +22°C° 0 mm 1 mps 751 mmHg 69%
    10:00 +23°C° 0 mm 1 mps 751 mmHg 64%
    11:00 +24°C° 0 mm 1 mps 751 mmHg 60%
    12:00 +25°C° 0 mm 2 mps 750 mmHg 55%
    13:00 +25°C° 0 mm 2 mps 750 mmHg 54%
    14:00 +25°C° 0 mm 2 mps 750 mmHg 53%
    15:00 +25°C° 0 mm 2 mps 750 mmHg 52%
    16:00 +25°C° 0 mm 2 mps 750 mmHg 55%
    17:00 +25°C° 0 mm 2 mps 750 mmHg 58%
    18:00 +25°C° 0 mm 2 mps 750 mmHg 61%
    19:00 +23°C° 0 mm 2 mps 750 mmHg 66%
    20:00 +21°C° 0 mm 1 mps 750 mmHg 71%
    21:00 +19°C° 0 mm 1 mps 750 mmHg 77%
    22:00 +18°C° 0 mm 1 mps 750 mmHg 79%
    23:00 +16°C° 0 mm 1 mps 750 mmHg 81%

    27 June, Wednesday

    Time Temperature Precipitation Wind Pressure Humidity
    00:00 +16°C° 0 mm 1 mps 750 mmHg 84%
    01:00 +15°C° 0 mm 1 mps 750 mmHg 85%
    02:00 +15°C° 0 mm 1 mps 750 mmHg 86%
    03:00 +15°C° 0 mm 1 mps 750 mmHg 87%
    04:00 +15°C° 0 mm 1 mps 750 mmHg 86%
    05:00 +16°C° 0 mm 1 mps 750 mmHg 84%
    06:00 +18°C° 0 mm 1 mps 750 mmHg 82%
    07:00 +19°C° 0 mm 1 mps 750 mmHg 77%
    08:00 +21°C° 0 mm 1 mps 750 mmHg 72%
    09:00 +22°C° 0 mm 1 mps 750 mmHg 67%
    10:00 +24°C° 0 mm 1 mps 749 mmHg 63%
    11:00 +25°C° 0 mm 1 mps 749 mmHg 59%
    12:00 +26°C° 0 mm 1 mps 749 mmHg 55%
    13:00 +26°C° 0 mm 1 mps 749 mmHg 53%
    14:00 +26°C° 0 mm 1 mps 748 mmHg 51%
    15:00 +27°C° 0 mm 1 mps 748 mmHg 50%
    16:00 +27°C° 0 mm 1 mps 748 mmHg 53%
    17:00 +26°C° 0 mm 1 mps 748 mmHg 57%
    18:00 +26°C° 0 mm 1 mps 748 mmHg 60%
    19:00 +24°C° 0 mm 1 mps 748 mmHg 63%
    20:00 +23°C° 0 mm 2 mps 748 mmHg 67%
    21:00 +20°C° 0 mm 2 mps 748 mmHg 70%
    22:00 +19°C° 0 mm 2 mps 748 mmHg 72%
    23:00 +18°C° 0 mm 2 mps 747 mmHg 74%
    Show more